This is the latest recevied weather packets stored in our database for station/object SV5DDT-12. If no packets are shown the sender has not sent any weather packets the latest 10 day(s).
| Time | Temp. | Humidity | Pressure | Rain* | Wind** | Luminosity | Snow |
|---|---|---|---|---|---|---|---|
| 1777637700 | 23.33° C | 58% | 1014.2 hPa | - | - | - | - |
| 1777636800 | 23.33° C | 58% | 1014.5 hPa | - | - | - | - |
| 1777635900 | 23.33° C | 59% | 1014.5 hPa | - | - | - | - |
| 1777634999 | 23.33° C | 60% | 1014.6 hPa | - | - | - | - |
| 1777634099 | 23.33° C | 60% | 1014.6 hPa | - | - | - | - |
| 1777633199 | 23.33° C | 58% | 1014.6 hPa | - | - | - | - |
| 1777632299 | 23.33° C | 58% | 1014.6 hPa | - | - | - | - |
| 1777631399 | 23.33° C | 58% | 1014.5 hPa | - | - | - | - |
| 1777630499 | 23.33° C | 60% | 1014.6 hPa | - | - | - | - |
| 1777629599 | 23.33° C | 60% | 1014.4 hPa | - | - | - | - |
| 1777628699 | 23.33° C | 59% | 1014.9 hPa | - | - | - | - |
| 1777627799 | 23.89° C | 58% | 1014.7 hPa | - | - | - | - |
| 1777626899 | 23.89° C | 60% | 1015 hPa | - | - | - | - |
| 1777625998 | 23.89° C | 63% | 1014.8 hPa | - | - | - | - |
| 1777625098 | 23.89° C | 65% | 1014.9 hPa | - | - | - | - |
| 1777624198 | 23.89° C | 64% | 1014.9 hPa | - | - | - | - |
| 1777623298 | 23.89° C | 64% | 1015 hPa | - | - | - | - |
| 1777622398 | 23.33° C | 64% | 1014.9 hPa | - | - | - | - |
| 1777621498 | 23.33° C | 64% | 1015.1 hPa | - | - | - | - |
| 1777620598 | 23.33° C | 65% | 1014.6 hPa | - | - | - | - |
| 1777619697 | 23.33° C | 61% | 1014.5 hPa | - | - | - | - |
| 1777618797 | 23.33° C | 61% | 1014.5 hPa | - | - | - | - |
| 1777617897 | 23.33° C | 60% | 1014.5 hPa | - | - | - | - |
| 1777616997 | 23.33° C | 60% | 1014.3 hPa | - | - | - | - |
| 1777616097 | 23.33° C | 60% | 1014.2 hPa | - | - | - | - |
* Rain since midnight (hover to see other rain measurements)
** Current wind speed in m/s (hover to see current wind gust speed)